THORAD AGENA D DEB

Satellite information

Favourite Embed

Satellite Type and Status

DEBRISIN ORBIT

Key statistics

Satellite THORAD AGENA D DEB at a glance.

Uptime

20117

Days in orbit

Revolutions

≈ 14.3

Per day

Orbit

SSO

Sun Synchronous Orbit

Inclination

99.7

Latest

Satellite identification and parameters

Extended collection of information and parameters for THORAD AGENA D DEB.

Object identification

Identified? True

Debris? True

Object name: THORAD AGENA D DEB

International designator: 1970-025JS

Object number (NORAD): 5149

Object ID (CCSDS): 5149

Country: UNITED STATES OF AMERICA (US)

Current information (Y/N): Y

RCS size: SMALL

Orbital parameters

Period: 100.922 minutes

Inclination: 99.657 deg

SMA: 7180.414 km

Apoapsis: 839.041 km

Periapsis: 765.517 km

RAAN: 126.4096 deg

Eccentricy: 0.0051198

Argument of periapsis: 210.7247 deg

Mean anomaly: 149.093 deg

Mean motion: 14.26850684 rev/day

Mean motion (dot): 0.00003336 rev/day2

B* drag term: 0.001377 1/REarth

Two-line elements (TLE)

Creation date: May 4, 2025, 5:21 p.m.

Reference frame: TEME

Reference center: EARTH

Epoch: May 4, 2025, 10:07 a.m. UTC

TLE line 0: 0 THORAD AGENA D DEB

TLE line 1: 1 05149U 70025JS 25124.42171057 .00003336 00000-0 13770-2 0 9999

TLE line 2: 2 05149 99.6570 126.4096 0051198 210.7247 149.0930 14.26850684803283

Live tracking on map

Real-time ground track for satellite THORAD AGENA D DEB.

In-orbit conjunctions

A list of the most updated potential collisions computed for object THORAD AGENA D DEB.

Target Orbit TCA Probability of collision Miss distance Type
COSMOS 1844 LEO 2025-04-15 10:21:14 0.003654478 173.0 (m) PAYLOAD
DMSP 5D-3 F19 DEB SSO 2025-03-05 19:42:31 0.0002337186 63.0 (m) DEBRIS
THOR BURNER 2 R/B SSO 2024-11-28 16:06:18 0.0001408627 322.0 (m) ROCKET BODY
COSMOS 676 LEO 2024-11-10 21:10:12 0.0007686071 955.0 (m) PAYLOAD
NOAA 16 DEB SSO 2024-09-27 13:44:56 0.0006544798 129.0 (m) DEBRIS

Associated space launch

Meteorological research and development satellite

THORAD AGENA D DEB was lifted into orbit during the mission ‘Thorad SLV-2G Agena D | Nimbus 4’, on board a Thorad SLV-2G Agena D space rocket.

The launch took place on April 8, 1970, 8:17 a.m. from Space Launch Complex 2E.

For more information about the launch, click the button.

Launch to space Thorad SLV-2G Agena D | Nimbus 4
Thorad SLV-2G Agena D | Nimbus 4

Agency: N/A

Status: Launch Successful

Launch date: April 8, 1970, 8:17 a.m. UTC

Rocket: Thorad SLV-2G Agena D

Launch pad: Space Launch Complex 2E

Location: Vandenberg SFB, CA, USA

...

Latest news about this satellite

There are no fresh news available about this satellite. Check back as we update our databases every day.


Newsletter sign-up

Weekly statistics, charts and insights to help you stay on top of the space industry.